Location: Isola Pescaroli
(45.0500°N, 10.1667°E)
Time: 12:30:31
(UTC+00:00)

Cosmos 1515 - Pass Details

Date: 03 March 2021
Orbit: 504 x 516 km, 82.5° (Epoch: 17 April)

Event Time Altitude Azimuth Distance (km) Brightness Sun altitude
Rises 17:54:34 0° 353° (N) 2,646 7.4 -8.7°
Reaches altitude 10° 17:56:43 10° 356° (N) 1,752 6.4 -9.1°
Maximum altitude 18:00:33 70° 80° (E) 552 3.6 -9.8°
Drops below altitude 10° 18:04:20 10° 165° (SSE) 1,731 6.2 -10.5°
Sets 18:06:27 0° 167° (SSE) 2,610 7.1 -10.8°
